Preview of NWS' New Version of Forecast
This preview is not operational and should not be used for support decisions.

Regional Weather Roundup (RWR)

Issued by National Weather Service (NWS)

                            
000
ASUS46 KSEW 241610
RWRWA 

WASHINGTON REGIONAL WEATHER ROUNDUP
NATIONAL WEATHER SERVICE SEATTLE WA
900 AM PDT WED APR 24 2019

NOTE:"FAIR" INDICATES FEW OR NO CLOUDS BELOW 12,000 FEET WITH NO 
SIGNIFICANT WEATHER AND/OR OBSTRUCTIONS TO VISIBILITY.

WAZ507-509-555>559-241700-
SEATTLE, TACOMA, EVERETT, AND VICINITY
  
CITY           SKY/WX    TMP DP  RH WIND       PRES   REMARKS
EVERETT        CLOUDY    48  40  73 NW8       30.36R                  
BOEING FIELD   CLOUDY    51  39  63 CALM      30.37R                  
RENTON         CLOUDY    50  41  71 NW3       30.36R                  
SEATAC AIRPORT PTSUNNY   49  40  71 W3        30.36R                  
JBLM-MCCHORD   CLOUDY    47  44  91 CALM      30.36S                  
PUYALLUP       CLOUDY    46  41  81 CALM      30.36R                  
BREMERTON      CLOUDY    48  40  73 CALM      30.37R                  
JBLM-FT LEWIS  CLOUDY    45  45  99 SW6       30.35S                  
TACOMA NARROWS CLOUDY    46  39  76 CALM      30.36R                  
$$
 
WAZ001-503-506-510-514-515-241700-
NORTH INTERIOR
  
CITY           SKY/WX    TMP DP  RH WIND       PRES   REMARKS
BELLINGHAM     PTSUNNY   50  38  63 NW9       30.35S                  
FRIDAY HARBOR  CLOUDY    51  34  52 N7        30.37R                  
EASTSOUND      CLOUDY    50  37  62 NW10      30.36R                  
PORT ANGELES   SUNNY     49  39  68 CALM      30.36S                  
EDIZ HOOK      FAIR      48  40  74 CALM      30.37R                  
PORT TOWNSEND  FAIR      50  41  71 W7        30.35S                  
NAS WHIDBEY    PTSUNNY   51  43  74 NW5       30.40R                  
ARLINGTON      PTSUNNY   50  44  80 W3        30.36S                  
BURLINGTON       N/A    N/A N/A N/A MISG        N/A                   
$$
 
WAZ020-022-039-040-504-511-512-241700-
SOUTHWEST INTERIOR
  
CITY           SKY/WX    TMP DP  RH WIND       PRES   REMARKS
SHELTON        MOSUNNY   47  40  76 CALM      30.34S                  
OLYMPIA        CLOUDY    44  40  85 E5        30.36S                  
CHEHALIS       FAIR      46  41  81 VRB5      30.37S                  
KELSO          CLOUDY    49  39  68 N7        30.36S                  
VANCOUVER      SUNNY     50  37  61 NW7       30.34S                  
SCAPPOOSE, OR  SUNNY     52  39  61 VRB3      30.34S                  
PORTLAND, OR   MOSUNNY   51  38  60 CALM      30.35S                  
$$
 
WAZ021-516-517-241700-
WASHINGTON COAST
  
CITY           SKY/WX    TMP DP  RH WIND       PRES   REMARKS
FORKS          PTSUNNY   47  44  90 CALM      30.36S                  
HOQUIAM        SUNNY     47  44  90 S3        30.36S                  
ASTORIA, OR    SUNNY     51  40  65 N10       30.35S                  
$$
 
WAZ019-023-024-040-567>569-241700-
CASCADE MOUNTAINS AND COLUMBIA GORGE
  
CITY           SKY/WX    TMP DP  RH WIND       PRES   REMARKS
STAMPEDE PASS  FOG       35  32  88 VRB3      30.24R VSB 1/4          
TROUTDALE, OR  SUNNY     49  37  63 CALM      30.35R                  
HOOD RIVER, OR SUNNY     48  36  61 MISG      30.26F                  
THE DALLES, OR SUNNY     52  36  54 NW15G26   30.25S                  
$$

WAZ026-027-041>044-520-521-241700-
EAST SLOPES
  
CITY           SKY/WX    TMP DP  RH WIND       PRES   REMARKS
OMAK           SUNNY     55  31  39 NE7       30.18S                  
WENATCHEE      SUNNY     53  28  38 W20       30.19F                  
ELLENSBURG     LGT RAIN  51  31  46 NW26G37   30.20R                  
YAKIMA         SUNNY     56  30  37 N15G23    30.22R                  
SUNNYSIDE ARPT SUNNY     55  36  47 W13       30.22R                  
YAKIMA TC        N/A     53  29  40 CALM      30.20R                  
$$

WAZ028-034-035-241700-
COLUMBIA BASIN
  
CITY           SKY/WX    TMP DP  RH WIND       PRES   REMARKS
EPHRATA        SUNNY     57  28  33 N16       30.18R                  
MOSES LAKE     SUNNY     58  32  37 NW13      30.19R                  
PASCO          SUNNY     59  34  39 NW7       30.22R                  
RICHLAND ARPT  SUNNY     58  35  43 MISG      30.22R                  
HERMISTON, OR  SUNNY     57  42  57 W13       30.22R                  
$$

WAZ036>038-241700-
NORTHEAST WASHINGTON
  
CITY           SKY/WX    TMP DP  RH WIND       PRES   REMARKS
SPOKANE GEIGER MOSUNNY   49  31  49 W9        30.13R                  
SPOKANE FELTS  SUNNY     50  33  52 W5        30.14R                  
FAIRCHILD AFB  SUNNY     50  33  52 W6        30.12R                  
COEURDALENE,ID SUNNY     50  36  58 SW8       30.13R                  
DEER PARK      SUNNY     48  36  63 S7        30.13R                  
$$

WAZ029>033-241700-
SOUTHEAST WASHINGTON
  
CITY           SKY/WX    TMP DP  RH WIND       PRES   REMARKS
PULLMAN        SUNNY     51  35  54 W12       30.17R                  
LEWISTON, ID   SUNNY     57  37  47 NW16G24   30.16R                  
WALLA WALLA    PTSUNNY   55  42  61 S3        30.21R                  
PENDLETON, OR  SUNNY     52  40  63 W13       30.21R                  
$$